This demonstration page uses our WeatherBlox Daily Observations layout. Learn more.

Left ArrowRight Arrow

41.86663, -103.66717

Hourly Observations for October 26, 2018

Temp ( °F °C ) Dew Point ( °F °C ) Humidity (%) Winds ( mph kmh ) Pressure ( in mb ) Visibility ( mi km ) Precip ( " mm )
12:53 am 00:53 Cloudy 49 9.4 42 5.6 77 77 NW 5 7 29.95 1014 10 16 0.00 0.00
1:53 am 01:53 Cloudy 48 8.9 43 6.1 83 83 W 3 6 29.94 1014 10 16 0.00 0.03
2:53 am 02:53 Cloudy 49 9.4 43 6.1 80 80 WNW 6 9 29.95 1014 10 16 0.00 0.03
3:53 am 03:53 Cloudy 48 8.9 42 5.6 80 80 NW 7 11 29.95 1014 10 16 0.00 0.00
4:53 am 04:53 Mostly Cloudy 44 6.7 41 5 89 89 NW 7 11 29.97 1015 10 16 0.00 0.00
5:53 am 05:53 Partly Cloudy 41 5 39 3.9 93 93 NNW 6 9 30.00 1016 10 16 0.00 0.00
6:53 am 06:53 Clear 41 5 38 3.3 89 89 WNW 8 13 30.01 1016 10 16 0.00 0.00
7:53 am 07:53 Sunny 41 5 38 3.3 89 89 WNW 7 11 30.03 1017 10 16 0.00 0.00
8:53 am 08:53 Sunny 47 8.3 37 2.8 69 69 W 10 17 30.03 1017 10 16 0.00 0.00
9:53 am 09:53 Sunny 52 11.1 37 2.8 57 57 WNW 14 22 30.02 1017 10 16 0.00 0.00
10:53 am 10:53 Sunny 60 15.6 38 3.3 44 44 W 15 24 29.99 1016 10 16 0.00 0.00
11:53 am 11:53 Partly Cloudy 59 15 38 3.3 46 46 WNW 10 17 29.98 1015 10 16 0.00 0.00
12:53 pm 12:53 Sunny 62 16.7 35 1.7 37 37 WNW 15 24 29.94 1014 10 16 0.00 0.00
1:53 pm 13:53 Sunny 67 19.4 31 -0.6 26 26 WNW 18 30 29.90 1013 10 16 0.00 0.00
2:53 pm 14:53 Sunny 69 20.6 28 -2.2 22 22 WNW 17 28 29.88 1012 10 16 0.00 0.00
3:53 pm 15:53 Sunny 70 21.1 27 -2.8 20 20 W 14 22 29.87 1011 10 16 0.00 0.00
4:53 pm 16:53 Sunny 68 20 29 -1.7 23 23 NW 16 26 29.88 1012 10 16 0.00 0.00
5:53 pm 17:53 Sunny 62 16.7 32 0 32 32 NNW 12 19 29.91 1013 10 16 0.00 0.00
6:53 pm 18:53 Partly Cloudy 55 12.8 33 0.6 44 44 N 6 9 29.94 1014 10 16 0.00 0.00
7:53 pm 19:53 Mostly Cloudy 54 12.2 34 1.1 47 47 W 5 7 29.96 1015 10 16 0.00 0.00
8:53 pm 20:53 Mostly Clear 47 8.3 34 1.1 61 61 NW 5 7 29.98 1015 10 16 0.00 0.00
9:53 pm 21:53 Clear 46 7.8 33 0.6 61 61 NW 6 9 30.00 1016 10 16 0.00 0.00
10:53 pm 22:53 Clear 43 6.1 33 0.6 68 68 NNW 7 11 29.98 1015 10 16 0.00 0.00
11:53 pm 23:53 Clear 42 5.6 33 0.6 71 71 WNW 7 11 29.98 1015 10 16 0.00 0.00

Powered by AerisWeather